Location: Newark
(41.8922°N, 9.0050°E)
Time: 19:07:42
(UTC+00:00)

ISS - Pass Details

Date: 25 January 2020
Orbit: 416 x 422 km, 51.6° (Epoch: 20 February)

Event Time Altitude Azimuth Distance (km) Brightness Sun altitude
Rises 18:09:33 0° 273° (W) 2,373 1.6 -18.6°
Reaches altitude 10° 18:11:58 10° 289° (WNW) 1,509 0.0 -19.0°
Maximum altitude 18:14:42 22° 343° (NNW) 978 -1.8 -19.5°
Enters shadow 18:15:13 21° 357° (N) 1,002 -1.9 -19.6°
